When you browse on this site, cookies collect data to enhance your experience and personalize the content and advertising you see.
Visit our Privacy Policy to learn more. By continuing to use the site, you agree to this use of cookies and data.
  • In Netherlands
  • List of Countries
  • For 7 days
  • Water Temperature
  • Weather Map
  • Weather Widgets
  • user-avatar
    Login

    Hourly Weather Pazardzhik

    Today, 20 September, Friday

    Time Temperature Precipitation Wind Pressure Humidity
    00:00 +15°C° 1 mm 2 mps 746 mmHg 87%
    01:00 +14°C° 1 mm 2 mps 746 mmHg 87%
    02:00 +13°C° 1 mm 2 mps 746 mmHg 87%
    03:00 +12°C° 1.1 mm 3 mps 746 mmHg 88%
    04:00 +12°C° 1.1 mm 3 mps 746 mmHg 88%
    05:00 +12°C° 1.1 mm 3 mps 746 mmHg 89%
    06:00 +13°C° 0.7 mm 2 mps 746 mmHg 84%
    07:00 +13°C° 0.7 mm 2 mps 746 mmHg 79%
    08:00 +14°C° 0.7 mm 2 mps 746 mmHg 74%
    09:00 +15°C° 0 mm 2 mps 747 mmHg 62%
    10:00 +17°C° 0 mm 3 mps 747 mmHg 50%
    11:00 +19°C° 0 mm 3 mps 747 mmHg 38%
    12:00 +20°C° 0 mm 3 mps 747 mmHg 33%
    13:00 +21°C° 0 mm 3 mps 747 mmHg 29%
    14:00 +22°C° 0 mm 4 mps 746 mmHg 24%
    15:00 +21°C° 0 mm 4 mps 746 mmHg 26%
    16:00 +21°C° 0 mm 4 mps 746 mmHg 27%
    17:00 +20°C° 0 mm 4 mps 746 mmHg 28%
    18:00 +18°C° 0 mm 3 mps 747 mmHg 35%
    19:00 +16°C° 0 mm 2 mps 747 mmHg 42%
    20:00 +14°C° 0 mm 1 mps 748 mmHg 49%
    21:00 +13°C° 0 mm 1 mps 748 mmHg 52%
    22:00 +13°C° 0 mm 1 mps 748 mmHg 55%
    23:00 +12°C° 0 mm 1 mps 748 mmHg 58%

    Tomorrow, 21 September, Saturday

    Time Temperature Precipitation Wind Pressure Humidity
    00:00 +12°C° 0 mm 1 mps 749 mmHg 60%
    01:00 +12°C° 0 mm 1 mps 749 mmHg 61%
    02:00 +11°C° 0 mm 1 mps 749 mmHg 63%
    03:00 +11°C° 0 mm 1 mps 749 mmHg 62%
    04:00 +11°C° 0 mm 1 mps 749 mmHg 62%
    05:00 +11°C° 0 mm 1 mps 749 mmHg 62%
    06:00 +12°C° 0 mm 1 mps 749 mmHg 57%
    07:00 +14°C° 0 mm 1 mps 750 mmHg 51%
    08:00 +15°C° 0 mm 1 mps 750 mmHg 46%
    09:00 +18°C° 0 mm 1 mps 750 mmHg 41%
    10:00 +20°C° 0 mm 1 mps 750 mmHg 36%
    11:00 +22°C° 0 mm 1 mps 750 mmHg 31%
    12:00 +23°C° 0 mm 1 mps 750 mmHg 29%
    13:00 +23°C° 0 mm 2 mps 749 mmHg 26%
    14:00 +24°C° 0 mm 2 mps 749 mmHg 24%
    15:00 +24°C° 0 mm 2 mps 748 mmHg 25%
    16:00 +23°C° 0 mm 2 mps 748 mmHg 26%
    17:00 +23°C° 0 mm 2 mps 748 mmHg 27%
    18:00 +20°C° 0 mm 2 mps 748 mmHg 32%
    19:00 +18°C° 0 mm 1 mps 748 mmHg 37%
    20:00 +15°C° 0 mm 1 mps 748 mmHg 42%
    21:00 +15°C° 0 mm 1 mps 749 mmHg 44%
    22:00 +14°C° 0 mm 1 mps 749 mmHg 45%
    23:00 +14°C° 0 mm 1 mps 749 mmHg 47%

    Day after tomorrow, 22 September, Sunday

    Time Temperature Precipitation Wind Pressure Humidity
    00:00 +13°C° 0 mm 1 mps 749 mmHg 49%
    01:00 +13°C° 0 mm 1 mps 749 mmHg 52%
    02:00 +12°C° 0 mm 1 mps 749 mmHg 55%
    03:00 +12°C° 0 mm 1 mps 748 mmHg 57%
    04:00 +11°C° 0 mm 1 mps 748 mmHg 60%
    05:00 +10°C° 0 mm 0 mps 748 mmHg 62%
    06:00 +11°C° 0 mm 0 mps 748 mmHg 58%
    07:00 +13°C° 0 mm 0 mps 748 mmHg 54%
    08:00 +14°C° 0 mm 0 mps 748 mmHg 50%
    09:00 +18°C° 0 mm 1 mps 748 mmHg 45%
    10:00 +20°C° 0 mm 1 mps 748 mmHg 40%
    11:00 +21°C° 0 mm 2 mps 748 mmHg 35%
    12:00 +23°C° 0 mm 2 mps 747 mmHg 32%
    13:00 +24°C° 0 mm 2 mps 747 mmHg 29%
    14:00 +26°C° 0 mm 2 mps 746 mmHg 26%
    15:00 +25°C° 0 mm 2 mps 746 mmHg 27%
    16:00 +25°C° 0 mm 2 mps 745 mmHg 28%
    17:00 +24°C° 0 mm 2 mps 745 mmHg 29%
    18:00 +22°C° 0 mm 1 mps 745 mmHg 33%
    19:00 +20°C° 0 mm 1 mps 745 mmHg 38%
    20:00 +18°C° 0 mm 1 mps 745 mmHg 43%
    21:00 +16°C° 0 mm 1 mps 745 mmHg 45%
    22:00 +16°C° 0 mm 1 mps 745 mmHg 48%
    23:00 +15°C° 0 mm 1 mps 745 mmHg 50%

    23 September, Monday

    Time Temperature Precipitation Wind Pressure Humidity
    00:00 +15°C° 0 mm 1 mps 745 mmHg 52%
    01:00 +14°C° 0 mm 1 mps 745 mmHg 55%
    02:00 +14°C° 0 mm 1 mps 745 mmHg 58%
    03:00 +13°C° 0 mm 1 mps 745 mmHg 60%
    04:00 +13°C° 0 mm 1 mps 745 mmHg 63%
    05:00 +13°C° 0 mm 1 mps 745 mmHg 66%
    06:00 +14°C° 0 mm 1 mps 745 mmHg 61%
    07:00 +15°C° 0 mm 0 mps 744 mmHg 57%
    08:00 +16°C° 0 mm 0 mps 744 mmHg 52%
    09:00 +20°C° 0 mm 1 mps 744 mmHg 47%
    10:00 +22°C° 0 mm 1 mps 744 mmHg 42%
    11:00 +24°C° 0 mm 2 mps 744 mmHg 36%
    12:00 +25°C° 0 mm 2 mps 743 mmHg 35%
    13:00 +26°C° 0 mm 2 mps 743 mmHg 33%
    14:00 +27°C° 0 mm 2 mps 742 mmHg 31%
    15:00 +26°C° 0 mm 2 mps 742 mmHg 33%
    16:00 +26°C° 0 mm 1 mps 742 mmHg 35%
    17:00 +25°C° 0 mm 1 mps 741 mmHg 36%
    18:00 +24°C° 0 mm 1 mps 741 mmHg 39%
    19:00 +23°C° 0 mm 1 mps 741 mmHg 43%
    20:00 +22°C° 0 mm 1 mps 741 mmHg 46%
    21:00 +21°C° 0 mm 1 mps 741 mmHg 49%
    22:00 +20°C° 0 mm 1 mps 741 mmHg 52%
    23:00 +20°C° 0 mm 1 mps 741 mmHg 56%

    24 September, Tuesday

    Time Temperature Precipitation Wind Pressure Humidity
    00:00 +20°C° 0 mm 1 mps 740 mmHg 55%
    01:00 +20°C° 0 mm 1 mps 740 mmHg 55%
    02:00 +20°C° 0 mm 1 mps 740 mmHg 55%
    03:00 +19°C° 0 mm 1 mps 739 mmHg 58%
    04:00 +18°C° 0 mm 1 mps 739 mmHg 62%
    05:00 +18°C° 0 mm 1 mps 739 mmHg 66%
    06:00 +19°C° 0 mm 1 mps 738 mmHg 63%
    07:00 +20°C° 0 mm 1 mps 738 mmHg 60%
    08:00 +21°C° 0 mm 1 mps 738 mmHg 58%
    09:00 +22°C° 0 mm 1 mps 738 mmHg 55%
    10:00 +24°C° 0 mm 1 mps 738 mmHg 52%
    11:00 +25°C° 0 mm 1 mps 738 mmHg 49%
    12:00 +25°C° 0.2 mm 1 mps 738 mmHg 50%
    13:00 +26°C° 0.2 mm 1 mps 737 mmHg 50%
    14:00 +26°C° 0.2 mm 1 mps 737 mmHg 50%
    15:00 +25°C° 0.4 mm 1 mps 737 mmHg 54%
    16:00 +25°C° 0.4 mm 1 mps 736 mmHg 58%
    17:00 +24°C° 0.4 mm 1 mps 736 mmHg 61%
    18:00 +23°C° 0.7 mm 1 mps 737 mmHg 68%
    19:00 +21°C° 0.7 mm 1 mps 737 mmHg 74%
    20:00 +20°C° 0.7 mm 1 mps 737 mmHg 80%
    21:00 +20°C° 0.6 mm 1 mps 738 mmHg 83%
    22:00 +19°C° 0.6 mm 2 mps 738 mmHg 86%
    23:00 +18°C° 0.6 mm 2 mps 738 mmHg 89%

    25 September, Wednesday

    Time Temperature Precipitation Wind Pressure Humidity
    00:00 +18°C° 0.3 mm 2 mps 738 mmHg 89%
    01:00 +18°C° 0.3 mm 2 mps 738 mmHg 89%
    02:00 +18°C° 0.3 mm 2 mps 738 mmHg 89%
    03:00 +18°C° 0.1 mm 2 mps 738 mmHg 89%
    04:00 +17°C° 0.1 mm 2 mps 738 mmHg 88%
    05:00 +17°C° 0.1 mm 2 mps 738 mmHg 88%
    06:00 +18°C° 0 mm 2 mps 739 mmHg 85%
    07:00 +18°C° 0 mm 2 mps 739 mmHg 81%
    08:00 +18°C° 0 mm 2 mps 739 mmHg 78%
    09:00 +20°C° 0 mm 2 mps 740 mmHg 70%
    10:00 +23°C° 0 mm 2 mps 740 mmHg 63%
    11:00 +24°C° 0 mm 3 mps 740 mmHg 55%
    12:00 +25°C° 0 mm 3 mps 740 mmHg 51%
    13:00 +26°C° 0 mm 3 mps 740 mmHg 47%
    14:00 +27°C° 0 mm 2 mps 740 mmHg 43%
    15:00 +27°C° 0 mm 3 mps 740 mmHg 44%
    16:00 +27°C° 0 mm 3 mps 739 mmHg 45%
    17:00 +26°C° 0 mm 3 mps 739 mmHg 46%
    18:00 +24°C° 0 mm 2 mps 740 mmHg 53%
    19:00 +21°C° 0 mm 2 mps 740 mmHg 59%
    20:00 +21°C° 0 mm 1 mps 741 mmHg 66%
    21:00 +20°C° 0 mm 1 mps 741 mmHg 69%
    22:00 +19°C° 0 mm 1 mps 741 mmHg 71%
    23:00 +19°C° 0 mm 1 mps 741 mmHg 74%
    Show more